Year,Month,Day,Hour,Minute,Value (Times are PST for temperature in C)
2011,02,23,00,00,-2.60
2011,02,23,00,01,-2.70
2011,02,23,00,02,-2.70
2011,02,23,00,03,-2.70
2011,02,23,00,04,-2.80
2011,02,23,00,05,-2.80
2011,02,23,00,06,-2.80
2011,02,23,00,07,-2.80
2011,02,23,00,08,-2.80
2011,02,23,00,09,-2.80
2011,02,23,00,10,-2.90
2011,02,23,00,11,-2.90
2011,02,23,00,12,-2.90
2011,02,23,00,13,-2.90
2011,02,23,00,14,-2.90
2011,02,23,00,15,-2.90
2011,02,23,00,16,-2.90
2011,02,23,00,17,-2.90
2011,02,23,00,18,-2.90
2011,02,23,00,19,-2.90
2011,02,23,00,20,-2.90
2011,02,23,00,21,-2.90
2011,02,23,00,22,-2.90
2011,02,23,00,23,-2.90
2011,02,23,00,24,-2.90
2011,02,23,00,25,-2.90
2011,02,23,00,26,-2.90
2011,02,23,00,27,-2.90
2011,02,23,00,28,-2.90
2011,02,23,00,29,-2.90
2011,02,23,00,30,-2.90
2011,02,23,00,31,-3.00
2011,02,23,00,32,-3.00
2011,02,23,00,33,-3.00
2011,02,23,00,34,-3.00
2011,02,23,00,35,-3.10
2011,02,23,00,36,-3.10
2011,02,23,00,37,-3.10
2011,02,23,00,38,-3.10
2011,02,23,00,39,-3.10
2011,02,23,00,40,-3.10
2011,02,23,00,41,-3.20
2011,02,23,00,42,-3.20
2011,02,23,00,43,-3.20
2011,02,23,00,44,-3.20
2011,02,23,00,45,-3.20
2011,02,23,00,46,-3.20
2011,02,23,00,47,-3.20
2011,02,23,00,48,-3.20
2011,02,23,00,49,-3.20
2011,02,23,00,50,-3.20
2011,02,23,00,51,-3.20
2011,02,23,00,52,-3.20
2011,02,23,00,53,-3.20
2011,02,23,00,54,-3.20
2011,02,23,00,55,-3.20
2011,02,23,00,56,-3.20
2011,02,23,00,57,-3.20
2011,02,23,00,58,-3.20
2011,02,23,00,59,-3.20
2011,02,23,01,00,-3.30
2011,02,23,01,01,-3.30
2011,02,23,01,02,-3.30
2011,02,23,01,03,-3.40
2011,02,23,01,04,-3.40
2011,02,23,01,05,-3.40
2011,02,23,01,06,-3.50
2011,02,23,01,07,-3.50
2011,02,23,01,08,-3.60
2011,02,23,01,09,-3.60
2011,02,23,01,10,-3.60
2011,02,23,01,11,-3.60
2011,02,23,01,12,-3.60
2011,02,23,01,13,-3.70
2011,02,23,01,14,-3.70
2011,02,23,01,15,-3.70
2011,02,23,01,16,-3.70
2011,02,23,01,17,-3.70
2011,02,23,01,18,-3.70
2011,02,23,01,19,-3.70
2011,02,23,01,20,-3.70
2011,02,23,01,21,-3.70
2011,02,23,01,22,-3.70
2011,02,23,01,23,-3.70
2011,02,23,01,24,-3.70
2011,02,23,01,25,-3.70
2011,02,23,01,26,-3.70
2011,02,23,01,27,-3.70
2011,02,23,01,28,-3.70
2011,02,23,01,29,-3.70
2011,02,23,01,30,-3.70
2011,02,23,01,31,-3.70
2011,02,23,01,32,-3.70
2011,02,23,01,33,-3.70
2011,02,23,01,34,-3.70
2011,02,23,01,35,-3.70
2011,02,23,01,36,-3.80
2011,02,23,01,37,-3.80
2011,02,23,01,38,-3.80
2011,02,23,01,39,-3.80
2011,02,23,01,40,-3.80
2011,02,23,01,41,-3.90
2011,02,23,01,42,-3.90
2011,02,23,01,43,-3.90
2011,02,23,01,44,-3.90
2011,02,23,01,45,-3.90
2011,02,23,01,46,-3.90
2011,02,23,01,47,-3.90
2011,02,23,01,48,-3.90
2011,02,23,01,49,-3.90
2011,02,23,01,50,-3.90
2011,02,23,01,51,-3.90
2011,02,23,01,52,-3.90
2011,02,23,01,53,-3.90
2011,02,23,01,54,-3.90
2011,02,23,01,55,-4.00
2011,02,23,01,56,-4.00
2011,02,23,01,57,-4.00
2011,02,23,01,58,-4.00
2011,02,23,01,59,-4.10
2011,02,23,02,00,-4.10
2011,02,23,02,01,-4.10
2011,02,23,02,02,-4.10
2011,02,23,02,03,-4.10
2011,02,23,02,04,-4.10
2011,02,23,02,05,-4.10
2011,02,23,02,06,-4.10
2011,02,23,02,07,-4.10
2011,02,23,02,08,-4.20
2011,02,23,02,09,-4.20
2011,02,23,02,10,-4.20
2011,02,23,02,11,-4.20
2011,02,23,02,12,-4.20
2011,02,23,02,13,-4.20
2011,02,23,02,14,-4.20
2011,02,23,02,15,-4.20
2011,02,23,02,16,-4.20
2011,02,23,02,17,-4.20
2011,02,23,02,18,-4.20
2011,02,23,02,19,-4.20
2011,02,23,02,20,-4.20
2011,02,23,02,21,-4.20
2011,02,23,02,22,-4.20
2011,02,23,02,23,-4.20
2011,02,23,02,24,-4.20
2011,02,23,02,25,-4.20
2011,02,23,02,26,-4.20
2011,02,23,02,27,-4.20
2011,02,23,02,28,-4.20
2011,02,23,02,29,-4.30
2011,02,23,02,30,-4.30
2011,02,23,02,31,-4.30
2011,02,23,02,32,-4.30
2011,02,23,02,33,-4.30
2011,02,23,02,34,-4.30
2011,02,23,02,35,-4.30
2011,02,23,02,36,-4.30
2011,02,23,02,37,-4.30
2011,02,23,02,38,-4.30
2011,02,23,02,39,-4.30
2011,02,23,02,40,-4.30
2011,02,23,02,41,-4.40
2011,02,23,02,42,-4.40
2011,02,23,02,43,-4.40
2011,02,23,02,44,-4.40
2011,02,23,02,45,-4.40
2011,02,23,02,46,-4.40
2011,02,23,02,47,-4.40
2011,02,23,02,48,-4.40
2011,02,23,02,49,-4.40
2011,02,23,02,50,-4.40
2011,02,23,02,51,-4.40
2011,02,23,02,52,-4.40
2011,02,23,02,53,-4.30
2011,02,23,02,54,-4.30
2011,02,23,02,55,-4.30
2011,02,23,02,56,-4.30
2011,02,23,02,57,-4.20
2011,02,23,02,58,-4.20
2011,02,23,02,59,-4.10
2011,02,23,03,00,-4.10
2011,02,23,03,01,-4.00
2011,02,23,03,02,-4.00
2011,02,23,03,06,-4.10
2011,02,23,03,07,-4.10
2011,02,23,03,08,-4.10
2011,02,23,03,09,-4.20
2011,02,23,03,10,-4.20
2011,02,23,03,11,-4.20
2011,02,23,03,12,-4.30
2011,02,23,03,13,-4.30
2011,02,23,03,14,-4.30
2011,02,23,03,15,-4.40
2011,02,23,03,16,-4.40
2011,02,23,03,17,-4.40
2011,02,23,03,18,-4.40
2011,02,23,03,19,-4.50
2011,02,23,03,20,-4.50
2011,02,23,03,21,-4.50
2011,02,23,03,22,-4.40
2011,02,23,03,23,-4.40
2011,02,23,03,24,-4.40
2011,02,23,03,25,-4.40
2011,02,23,03,26,-4.40
2011,02,23,03,27,-4.40
2011,02,23,03,28,-4.40
2011,02,23,03,29,-4.40
2011,02,23,03,30,-4.40
2011,02,23,03,31,-4.40
2011,02,23,03,32,-4.40
2011,02,23,03,33,-4.40
2011,02,23,03,34,-4.50
2011,02,23,03,35,-4.50
2011,02,23,03,36,-4.50
2011,02,23,03,37,-4.60
2011,02,23,03,38,-4.60
2011,02,23,03,39,-4.60
2011,02,23,03,40,-4.60
2011,02,23,03,41,-4.70
2011,02,23,03,42,-4.70
2011,02,23,03,43,-4.70
2011,02,23,03,44,-4.70
2011,02,23,03,45,-4.60
2011,02,23,03,46,-4.60
2011,02,23,03,47,-4.70
2011,02,23,03,48,-4.70
2011,02,23,03,49,-4.70
2011,02,23,03,50,-4.70
2011,02,23,03,51,-4.70
2011,02,23,03,52,-4.70
2011,02,23,03,53,-4.70
2011,02,23,03,54,-4.70
2011,02,23,03,55,-4.70
2011,02,23,03,56,-4.70
2011,02,23,03,57,-4.70
2011,02,23,03,58,-4.80
2011,02,23,03,59,-4.80
2011,02,23,04,00,-4.80
2011,02,23,04,01,-4.80
2011,02,23,04,02,-4.80
2011,02,23,04,03,-4.90
2011,02,23,04,04,-4.90
2011,02,23,04,05,-4.90
2011,02,23,04,06,-4.90
2011,02,23,04,07,-4.90
2011,02,23,04,08,-4.90
2011,02,23,04,09,-4.90
2011,02,23,04,10,-4.90
2011,02,23,04,11,-4.90
2011,02,23,04,12,-4.90
2011,02,23,04,13,-4.90
2011,02,23,04,14,-4.90
2011,02,23,04,15,-4.90
2011,02,23,04,16,-4.90
2011,02,23,04,17,-4.90
2011,02,23,04,18,-4.90
2011,02,23,04,19,-4.90
2011,02,23,04,20,-4.90
2011,02,23,04,21,-4.90
2011,02,23,04,22,-4.90
2011,02,23,04,23,-4.80
2011,02,23,04,24,-4.80
2011,02,23,04,25,-4.80
2011,02,23,04,26,-4.80
2011,02,23,04,27,-4.70
2011,02,23,04,28,-4.70
2011,02,23,04,29,-4.70
2011,02,23,04,30,-4.70
2011,02,23,04,31,-4.70
2011,02,23,04,32,-4.70
2011,02,23,04,33,-4.70
2011,02,23,04,34,-4.70
2011,02,23,04,35,-4.70
2011,02,23,04,36,-4.70
2011,02,23,04,37,-4.70
2011,02,23,04,38,-4.70
2011,02,23,04,39,-4.70
2011,02,23,04,40,-4.70
2011,02,23,04,41,-4.70
2011,02,23,04,42,-4.70
2011,02,23,04,43,-4.70
2011,02,23,04,44,-4.70
2011,02,23,04,45,-4.70
2011,02,23,04,46,-4.70
2011,02,23,04,47,-4.60
2011,02,23,04,48,-4.60
2011,02,23,04,49,-4.60
2011,02,23,04,50,-4.60
2011,02,23,04,51,-4.50
2011,02,23,04,52,-4.50
2011,02,23,04,53,-4.50
2011,02,23,04,54,-4.50
2011,02,23,04,55,-4.50
2011,02,23,04,56,-4.50
2011,02,23,04,57,-4.40
2011,02,23,04,58,-4.40
2011,02,23,04,59,-4.40
2011,02,23,05,00,-4.40
2011,02,23,05,01,-4.40
2011,02,23,05,02,-4.30
2011,02,23,05,03,-4.30
2011,02,23,05,04,-4.30
2011,02,23,05,05,-4.30
2011,02,23,05,06,-4.30
2011,02,23,05,07,-4.30
2011,02,23,05,08,-4.40
2011,02,23,05,09,-4.40
2011,02,23,05,10,-4.40
2011,02,23,05,11,-4.40
2011,02,23,05,12,-4.40
2011,02,23,05,13,-4.40
2011,02,23,05,14,-4.40
2011,02,23,05,15,-4.30
2011,02,23,05,16,-4.30
2011,02,23,05,17,-4.30
2011,02,23,05,18,-4.30
2011,02,23,05,19,-4.30
2011,02,23,05,20,-4.30
2011,02,23,05,21,-4.20
2011,02,23,05,22,-4.20
2011,02,23,05,23,-4.20
2011,02,23,05,24,-4.20
2011,02,23,05,25,-4.20
2011,02,23,05,26,-4.20
2011,02,23,05,27,-4.20
2011,02,23,05,28,-4.20
2011,02,23,05,29,-4.20
2011,02,23,05,30,-4.20
2011,02,23,05,31,-4.20
2011,02,23,05,32,-4.20
2011,02,23,05,33,-4.20
2011,02,23,05,34,-4.10
2011,02,23,05,35,-4.10
2011,02,23,05,36,-4.00
2011,02,23,05,37,-4.00
2011,02,23,05,38,-4.00
2011,02,23,05,39,-3.90
2011,02,23,05,40,-3.90
2011,02,23,05,41,-3.90
2011,02,23,05,42,-3.90
2011,02,23,05,43,-3.90
2011,02,23,05,44,-3.90
2011,02,23,05,45,-3.90
2011,02,23,05,46,-3.90
2011,02,23,05,47,-3.90
2011,02,23,05,48,-3.90
2011,02,23,05,49,-3.90
2011,02,23,05,50,-3.90
2011,02,23,05,51,-3.90
2011,02,23,05,52,-3.80
2011,02,23,05,53,-3.80
2011,02,23,05,54,-3.80
2011,02,23,05,55,-3.70
2011,02,23,05,56,-3.70
2011,02,23,05,57,-3.70
2011,02,23,05,58,-3.60
2011,02,23,05,59,-3.60
2011,02,23,06,00,-3.60
2011,02,23,06,01,-3.60
2011,02,23,06,02,-3.60
2011,02,23,06,03,-3.60
2011,02,23,06,04,-3.60
2011,02,23,06,05,-3.60
2011,02,23,06,06,-3.60
2011,02,23,06,07,-3.60
2011,02,23,06,08,-3.60
2011,02,23,06,09,-3.50
2011,02,23,06,10,-3.50
2011,02,23,06,11,-3.40
2011,02,23,06,12,-3.30
2011,02,23,06,13,-3.30
2011,02,23,06,14,-3.30
2011,02,23,06,15,-3.20
2011,02,23,06,16,-3.20
2011,02,23,06,17,-3.20
2011,02,23,06,18,-3.10
2011,02,23,06,19,-3.10
2011,02,23,06,20,-3.10
2011,02,23,06,21,-3.10
2011,02,23,06,22,-3.10
2011,02,23,06,23,-3.10
2011,02,23,06,24,-3.10
2011,02,23,06,25,-3.10
2011,02,23,06,26,-3.10
2011,02,23,06,27,-3.20
2011,02,23,06,28,-3.20
2011,02,23,06,29,-3.20
2011,02,23,06,30,-3.20
2011,02,23,06,31,-3.20
2011,02,23,06,32,-3.20
2011,02,23,06,33,-3.20
2011,02,23,06,34,-3.20
2011,02,23,06,35,-3.20
2011,02,23,06,36,-3.20
2011,02,23,06,37,-3.20
2011,02,23,06,38,-3.20
2011,02,23,06,39,-3.20
2011,02,23,06,40,-3.20
2011,02,23,06,41,-3.10
2011,02,23,06,42,-3.10
2011,02,23,06,43,-3.10
2011,02,23,06,44,-3.10
2011,02,23,06,45,-3.10
2011,02,23,06,46,-3.10
2011,02,23,06,47,-3.10
2011,02,23,06,48,-3.10
2011,02,23,06,49,-3.00
2011,02,23,06,50,-3.00
2011,02,23,06,51,-3.00
2011,02,23,06,52,-2.90
2011,02,23,06,53,-2.90
2011,02,23,06,54,-2.80
2011,02,23,06,55,-2.80
2011,02,23,06,56,-2.80
2011,02,23,06,57,-2.80
2011,02,23,06,58,-2.80
2011,02,23,06,59,-2.70
2011,02,23,07,00,-2.70
2011,02,23,07,01,-2.70
2011,02,23,07,02,-2.80
2011,02,23,07,03,-2.80
2011,02,23,07,04,-2.80
2011,02,23,07,05,-2.90
2011,02,23,07,06,-2.90
2011,02,23,07,07,-3.00
2011,02,23,07,08,-3.00
2011,02,23,07,09,-3.00
2011,02,23,07,10,-3.00
2011,02,23,07,11,-3.00
2011,02,23,07,12,-3.00
2011,02,23,07,13,-3.00
2011,02,23,07,14,-3.00
2011,02,23,07,15,-3.00
2011,02,23,07,16,-3.00
2011,02,23,07,17,-3.00
2011,02,23,07,18,-3.00
2011,02,23,07,19,-3.00
2011,02,23,07,20,-3.00
2011,02,23,07,21,-2.90
2011,02,23,07,22,-2.90
2011,02,23,07,23,-2.90
2011,02,23,07,24,-2.90
2011,02,23,07,25,-2.90
2011,02,23,07,26,-3.00
2011,02,23,07,27,-3.00
2011,02,23,07,28,-3.00
2011,02,23,07,29,-3.00
2011,02,23,07,30,-3.00
2011,02,23,07,31,-3.00
2011,02,23,07,32,-3.00
2011,02,23,07,33,-3.00
2011,02,23,07,34,-3.00
2011,02,23,07,35,-3.00
2011,02,23,07,36,-2.90
2011,02,23,07,37,-2.90
2011,02,23,07,38,-2.90
2011,02,23,07,39,-2.90
2011,02,23,07,40,-2.90
2011,02,23,07,41,-2.80
2011,02,23,07,42,-2.80
2011,02,23,07,43,-2.80
2011,02,23,07,44,-2.80
2011,02,23,07,45,-2.70
2011,02,23,07,46,-2.70
2011,02,23,07,47,-2.70
2011,02,23,07,48,-2.60
2011,02,23,07,49,-2.60
2011,02,23,07,50,-2.50
2011,02,23,07,51,-2.50
2011,02,23,07,52,-2.40
2011,02,23,07,53,-2.40
2011,02,23,07,54,-2.30
2011,02,23,07,55,-2.30
2011,02,23,07,56,-2.30
2011,02,23,07,57,-2.30
2011,02,23,07,58,-2.20
2011,02,23,07,59,-2.20
2011,02,23,08,00,-2.20
2011,02,23,08,01,-2.10
2011,02,23,08,02,-2.10
2011,02,23,08,03,-2.10
2011,02,23,08,04,-2.10
2011,02,23,08,05,-2.00
2011,02,23,08,06,-2.00
2011,02,23,08,07,-2.00
2011,02,23,08,08,-1.90
2011,02,23,08,09,-1.90
2011,02,23,08,10,-1.90
2011,02,23,08,11,-1.90
2011,02,23,08,12,-1.90
2011,02,23,08,13,-1.90
2011,02,23,08,14,-1.90
2011,02,23,08,15,-1.90
2011,02,23,08,16,-1.90
2011,02,23,08,17,-1.90
2011,02,23,08,18,-1.90
2011,02,23,08,19,-1.90
2011,02,23,08,20,-1.90
2011,02,23,08,21,-1.90
2011,02,23,08,22,-1.90
2011,02,23,08,23,-1.90
2011,02,23,08,24,-1.90
2011,02,23,08,25,-1.80
2011,02,23,08,26,-1.80
2011,02,23,08,27,-1.80
2011,02,23,08,28,-1.80
2011,02,23,08,29,-1.80
2011,02,23,08,30,-1.70
2011,02,23,08,31,-1.70
2011,02,23,08,32,-1.70
2011,02,23,08,33,-1.70
2011,02,23,08,34,-1.70
2011,02,23,08,35,-1.70
2011,02,23,08,36,-1.70
2011,02,23,08,37,-1.70
2011,02,23,08,38,-1.80
2011,02,23,08,39,-1.80
2011,02,23,08,40,-1.80
2011,02,23,08,41,-1.70
2011,02,23,08,42,-1.70
2011,02,23,08,43,-1.70
2011,02,23,08,44,-1.70
2011,02,23,08,45,-1.70
2011,02,23,08,46,-1.70
2011,02,23,08,47,-1.70
2011,02,23,08,48,-1.70
2011,02,23,08,49,-1.60
2011,02,23,08,50,-1.60
2011,02,23,08,51,-1.60
2011,02,23,08,52,-1.60
2011,02,23,08,53,-1.60
2011,02,23,08,54,-1.60
2011,02,23,08,55,-1.60
2011,02,23,08,56,-1.60
2011,02,23,08,57,-1.60
2011,02,23,08,58,-1.60
2011,02,23,08,59,-1.50
2011,02,23,09,00,-1.50
2011,02,23,09,01,-1.50
2011,02,23,09,02,-1.50
2011,02,23,09,03,-1.40
2011,02,23,09,04,-1.40
2011,02,23,09,05,-1.40
2011,02,23,09,06,-1.40
2011,02,23,09,07,-1.40
2011,02,23,09,08,-1.30
2011,02,23,09,09,-1.30
2011,02,23,09,10,-1.30
2011,02,23,09,11,-1.30
2011,02,23,09,12,-1.30
2011,02,23,09,13,-1.30
2011,02,23,09,14,-1.30
2011,02,23,09,15,-1.30
2011,02,23,09,16,-1.30
2011,02,23,09,17,-1.30
2011,02,23,09,18,-1.30
2011,02,23,09,19,-1.30
2011,02,23,09,20,-1.30
2011,02,23,09,21,-1.30
2011,02,23,09,22,-1.30
2011,02,23,09,23,-1.30
2011,02,23,09,24,-1.30
2011,02,23,09,25,-1.30
2011,02,23,09,26,-1.30
2011,02,23,09,27,-1.40
2011,02,23,09,28,-1.40
2011,02,23,09,29,-1.50
2011,02,23,09,30,-1.50
2011,02,23,09,31,-1.60
2011,02,23,09,32,-1.60
2011,02,23,09,33,-1.70
2011,02,23,09,34,-1.70
2011,02,23,09,35,-1.80
2011,02,23,09,36,-1.80
2011,02,23,09,37,-1.90
2011,02,23,09,38,-1.90
2011,02,23,09,39,-1.90
2011,02,23,09,40,-1.90
2011,02,23,09,41,-1.90
2011,02,23,09,42,-1.90
2011,02,23,09,43,-1.90
2011,02,23,09,44,-1.90
2011,02,23,09,45,-2.00
2011,02,23,09,46,-2.00
2011,02,23,09,47,-2.00
2011,02,23,09,48,-2.00
2011,02,23,09,49,-2.00
2011,02,23,09,50,-2.00
2011,02,23,09,51,-2.00
2011,02,23,09,52,-2.00
2011,02,23,09,53,-2.00
2011,02,23,09,54,-2.00
2011,02,23,09,55,-2.00
2011,02,23,09,56,-2.00
2011,02,23,09,57,-2.00
2011,02,23,09,58,-2.10
2011,02,23,09,59,-2.00
2011,02,23,10,00,-2.10
2011,02,23,10,01,-2.10
2011,02,23,10,02,-2.10
2011,02,23,10,03,-2.10
2011,02,23,10,04,-2.10
2011,02,23,10,05,-2.10
2011,02,23,10,06,-2.00
2011,02,23,10,07,-2.00
2011,02,23,10,08,-2.00
2011,02,23,10,09,-2.00
2011,02,23,10,10,-2.00
2011,02,23,10,11,-2.00
2011,02,23,10,12,-2.00
2011,02,23,10,13,-1.90
2011,02,23,10,14,-1.90
2011,02,23,10,15,-1.90
2011,02,23,10,16,-1.90
2011,02,23,10,17,-1.90
2011,02,23,10,18,-1.90
2011,02,23,10,19,-1.90
2011,02,23,10,20,-1.80
2011,02,23,10,21,-1.80
2011,02,23,10,22,-1.80
2011,02,23,10,23,-1.80
2011,02,23,10,24,-1.80
2011,02,23,10,25,-1.80
2011,02,23,10,26,-1.80
2011,02,23,10,27,-1.80
2011,02,23,10,28,-1.80
2011,02,23,10,29,-1.90
2011,02,23,10,30,-1.90
2011,02,23,10,31,-1.90
2011,02,23,10,32,-1.80
2011,02,23,10,33,-1.80
2011,02,23,10,34,-1.80
2011,02,23,10,35,-1.80
2011,02,23,10,36,-1.80
2011,02,23,10,37,-1.80
2011,02,23,10,38,-1.80
2011,02,23,10,39,-1.80
2011,02,23,10,40,-1.80
2011,02,23,10,41,-1.80
2011,02,23,10,42,-1.80
2011,02,23,10,43,-1.80
2011,02,23,10,44,-1.80
2011,02,23,10,45,-1.80
2011,02,23,10,46,-1.80
2011,02,23,10,47,-1.80
2011,02,23,10,48,-1.80
2011,02,23,10,49,-1.80
2011,02,23,10,50,-1.80
2011,02,23,10,51,-1.80
2011,02,23,10,52,-1.80
2011,02,23,10,53,-1.80
2011,02,23,10,54,-1.80
2011,02,23,10,55,-1.80
2011,02,23,10,56,-1.80
2011,02,23,10,57,-1.80
2011,02,23,10,58,-1.70
2011,02,23,10,59,-1.70
2011,02,23,11,00,-1.70
2011,02,23,11,01,-1.70
2011,02,23,11,02,-1.70
2011,02,23,11,03,-1.70
2011,02,23,11,04,-1.70
2011,02,23,11,05,-1.60
2011,02,23,11,06,-1.60
2011,02,23,11,07,-1.60
2011,02,23,11,08,-1.60
2011,02,23,11,09,-1.60
2011,02,23,11,10,-1.50
2011,02,23,11,11,-1.50
2011,02,23,11,12,-1.50
2011,02,23,11,13,-1.50
2011,02,23,11,14,-1.50
2011,02,23,11,15,-1.50
2011,02,23,11,16,-1.40
2011,02,23,11,17,-1.40
2011,02,23,11,18,-1.40
2011,02,23,11,19,-1.40
2011,02,23,11,20,-1.40
2011,02,23,11,21,-1.40
2011,02,23,11,22,-1.40
2011,02,23,11,23,-1.40
2011,02,23,11,24,-1.40
2011,02,23,11,25,-1.30
2011,02,23,11,26,-1.30
2011,02,23,11,27,-1.30
2011,02,23,11,28,-1.30
2011,02,23,11,29,-1.30
2011,02,23,11,30,-1.30
2011,02,23,11,31,-1.30
2011,02,23,11,32,-1.30
2011,02,23,11,33,-1.30
2011,02,23,11,34,-1.30
2011,02,23,11,35,-1.30
2011,02,23,11,36,-1.30
2011,02,23,11,37,-1.30
2011,02,23,11,38,-1.30
2011,02,23,11,39,-1.30
2011,02,23,11,40,-1.30
2011,02,23,11,41,-1.30
2011,02,23,11,42,-1.30
2011,02,23,11,43,-1.30
2011,02,23,11,44,-1.30
2011,02,23,11,45,-1.30
2011,02,23,11,46,-1.30
2011,02,23,11,47,-1.30
2011,02,23,11,48,-1.30
2011,02,23,11,49,-1.30
2011,02,23,11,50,-1.20
2011,02,23,11,51,-1.20
2011,02,23,11,52,-1.20
2011,02,23,11,53,-1.10
2011,02,23,11,54,-1.20
2011,02,23,11,55,-1.20
2011,02,23,11,56,-1.20
2011,02,23,11,57,-1.20
2011,02,23,11,58,-1.20
2011,02,23,11,59,-1.10
2011,02,23,12,00,-1.10
2011,02,23,12,01,-1.10
2011,02,23,12,02,-1.10
2011,02,23,12,03,-1.10
2011,02,23,12,04,-1.10
2011,02,23,12,05,-1.10
2011,02,23,12,06,-1.10
2011,02,23,12,07,-1.10
2011,02,23,12,08,-1.10
2011,02,23,12,09,-1.10
2011,02,23,12,10,-1.20
2011,02,23,12,11,-1.20
2011,02,23,12,12,-1.20
2011,02,23,12,13,-1.20
2011,02,23,12,14,-1.20
2011,02,23,12,15,-1.20
2011,02,23,12,16,-1.20
2011,02,23,12,17,-1.20
2011,02,23,12,18,-1.20
2011,02,23,12,19,-1.20
2011,02,23,12,20,-1.20
2011,02,23,12,21,-1.10
2011,02,23,12,22,-1.10
2011,02,23,12,23,-1.10
2011,02,23,12,24,-1.10
2011,02,23,12,25,-1.10
2011,02,23,12,26,-1.00
2011,02,23,12,27,-1.00
2011,02,23,12,28,-1.00
2011,02,23,12,29,-1.00
2011,02,23,12,30,-0.90
2011,02,23,12,31,-0.90
2011,02,23,12,32,-0.80
2011,02,23,12,33,-0.80
2011,02,23,12,34,-0.80
2011,02,23,12,35,-0.70
2011,02,23,12,36,-0.70
2011,02,23,12,37,-0.60
2011,02,23,12,38,-0.60
2011,02,23,12,39,-0.50
2011,02,23,12,40,-0.50
2011,02,23,12,41,-0.40
2011,02,23,12,42,-0.40
2011,02,23,12,43,-0.30
2011,02,23,12,44,-0.20
2011,02,23,12,45,-0.20
2011,02,23,12,46,-0.10
2011,02,23,12,47,-0.10
2011,02,23,12,48,-0.10
2011,02,23,12,49,0.00
2011,02,23,12,50,0.00
2011,02,23,12,51,0.10
2011,02,23,12,52,0.10
2011,02,23,12,53,0.20
2011,02,23,12,54,0.20
2011,02,23,12,55,0.30
2011,02,23,12,56,0.30
2011,02,23,12,57,0.30
2011,02,23,12,58,0.40
2011,02,23,12,59,0.40
2011,02,23,13,00,0.40
2011,02,23,13,01,0.50
2011,02,23,13,02,0.50
2011,02,23,13,03,0.60
2011,02,23,13,04,0.60
2011,02,23,13,05,0.60
2011,02,23,13,06,0.60
2011,02,23,13,07,0.60
2011,02,23,13,08,0.60
2011,02,23,13,09,0.60
2011,02,23,13,10,0.60
2011,02,23,13,11,0.70
2011,02,23,13,12,0.70
2011,02,23,13,13,0.70
2011,02,23,13,14,0.70
2011,02,23,13,15,0.70
2011,02,23,13,16,0.60
2011,02,23,13,17,0.60
2011,02,23,13,18,0.60
2011,02,23,13,19,0.60
2011,02,23,13,20,0.60
2011,02,23,13,21,0.50
2011,02,23,13,22,0.50
2011,02,23,13,23,0.60
2011,02,23,13,24,0.50
2011,02,23,13,25,0.50
2011,02,23,13,26,0.50
2011,02,23,13,27,0.50
2011,02,23,13,28,0.50
2011,02,23,13,29,0.60
2011,02,23,13,30,0.50
2011,02,23,13,31,0.50
2011,02,23,13,32,0.50
2011,02,23,13,33,0.50
2011,02,23,13,34,0.50
2011,02,23,13,35,0.50
2011,02,23,13,36,0.50
2011,02,23,13,37,0.50
2011,02,23,13,38,0.50
2011,02,23,13,39,0.50
2011,02,23,13,40,0.40
2011,02,23,13,41,0.40
2011,02,23,13,42,0.30
2011,02,23,13,43,0.30
2011,02,23,13,44,0.20
2011,02,23,13,45,0.20
2011,02,23,13,46,0.20
2011,02,23,13,47,0.20
2011,02,23,13,48,0.20
2011,02,23,13,49,0.20
2011,02,23,13,50,0.10
2011,02,23,13,51,0.10
2011,02,23,13,52,0.00
2011,02,23,13,53,-0.10
2011,02,23,13,54,-0.20
2011,02,23,13,55,-0.20
2011,02,23,13,56,-0.30
2011,02,23,13,57,-0.40
2011,02,23,13,58,-0.40
2011,02,23,13,59,-0.40
2011,02,23,14,00,-0.40
2011,02,23,14,01,-0.40
2011,02,23,14,02,-0.40
2011,02,23,14,03,-0.30
2011,02,23,14,04,-0.30
2011,02,23,14,05,-0.30
2011,02,23,14,06,-0.30
2011,02,23,14,07,-0.30
2011,02,23,14,08,-0.30
2011,02,23,14,09,-0.30
2011,02,23,14,10,-0.30
2011,02,23,14,11,-0.30
2011,02,23,14,12,-0.30
2011,02,23,14,13,-0.30
2011,02,23,14,14,-0.30
2011,02,23,14,15,-0.20
2011,02,23,14,16,-0.20
2011,02,23,14,17,-0.10
2011,02,23,14,18,-0.10
2011,02,23,14,19,-0.10
2011,02,23,14,20,-0.10
2011,02,23,14,21,0.00
2011,02,23,14,22,0.00
2011,02,23,14,23,0.10
2011,02,23,14,24,0.10
2011,02,23,14,25,0.20
2011,02,23,14,26,0.20
2011,02,23,14,27,0.30
2011,02,23,14,28,0.30
2011,02,23,14,29,0.30
2011,02,23,14,30,0.30
2011,02,23,14,31,0.20
2011,02,23,14,32,0.20
2011,02,23,14,33,0.10
2011,02,23,14,34,0.10
2011,02,23,14,35,0.00
2011,02,23,14,36,0.00
2011,02,23,14,37,0.00
2011,02,23,14,38,0.00
2011,02,23,14,39,-0.10
2011,02,23,14,40,-0.10
2011,02,23,14,41,-0.10
2011,02,23,14,42,-0.10
2011,02,23,14,43,-0.20
2011,02,23,14,44,-0.20
2011,02,23,14,45,-0.30
2011,02,23,14,46,-0.30
2011,02,23,14,47,-0.40
2011,02,23,14,48,-0.40
2011,02,23,14,49,-0.40
2011,02,23,14,50,-0.40
2011,02,23,14,51,-0.40
2011,02,23,14,52,-0.40
2011,02,23,14,53,-0.40
2011,02,23,14,54,-0.40
2011,02,23,14,55,-0.40
2011,02,23,14,56,-0.30
2011,02,23,14,57,-0.30
2011,02,23,14,58,-0.30
2011,02,23,14,59,-0.30
2011,02,23,15,00,-0.30
2011,02,23,15,01,-0.20
2011,02,23,15,02,-0.20
2011,02,23,15,03,-0.20
2011,02,23,15,04,-0.20
2011,02,23,15,05,-0.20
2011,02,23,15,06,-0.20
2011,02,23,15,07,-0.20
2011,02,23,15,08,-0.10
2011,02,23,15,09,-0.10
2011,02,23,15,10,-0.10
2011,02,23,15,11,-0.10
2011,02,23,15,12,-0.10
2011,02,23,15,13,-0.10
2011,02,23,15,14,-0.10
2011,02,23,15,15,0.00
2011,02,23,15,16,0.00
2011,02,23,15,17,0.00
2011,02,23,15,18,0.00
2011,02,23,15,19,0.00
2011,02,23,15,20,-0.10
2011,02,23,15,21,-0.10
2011,02,23,15,22,-0.20
2011,02,23,15,23,-0.20
2011,02,23,15,24,-0.20
2011,02,23,15,25,-0.30
2011,02,23,15,26,-0.30
2011,02,23,15,27,-0.30
2011,02,23,15,28,-0.30
2011,02,23,15,29,-0.30
2011,02,23,15,30,-0.20
2011,02,23,15,31,-0.20
2011,02,23,15,32,-0.20
2011,02,23,15,33,-0.20
2011,02,23,15,34,-0.10
2011,02,23,15,35,0.00
2011,02,23,15,36,0.00
2011,02,23,15,37,0.10
2011,02,23,15,38,0.10
2011,02,23,15,39,0.20
2011,02,23,15,40,0.20
2011,02,23,15,41,0.30
2011,02,23,15,42,0.30
2011,02,23,15,43,0.30
2011,02,23,15,44,0.30
2011,02,23,15,45,0.20
2011,02,23,15,46,0.20
2011,02,23,15,47,0.00
2011,02,23,15,48,-0.20
2011,02,23,15,49,-0.40
2011,02,23,15,50,-0.50
2011,02,23,15,51,-0.70
2011,02,23,15,52,-0.80
2011,02,23,15,53,-0.90
2011,02,23,15,54,-1.00
2011,02,23,15,55,-1.20
2011,02,23,15,56,-1.30
2011,02,23,15,57,-1.40
2011,02,23,15,58,-1.50
2011,02,23,15,59,-1.70
2011,02,23,16,00,-1.80
2011,02,23,16,01,-1.90
2011,02,23,16,02,-2.00
2011,02,23,16,03,-2.10
2011,02,23,16,04,-2.10
2011,02,23,16,05,-2.20
2011,02,23,16,06,-2.20
2011,02,23,16,07,-2.20
2011,02,23,16,08,-2.20
2011,02,23,16,09,-2.20
2011,02,23,16,10,-2.30
2011,02,23,16,11,-2.30
2011,02,23,16,12,-2.30
2011,02,23,16,13,-2.30
2011,02,23,16,14,-2.40
2011,02,23,16,15,-2.40
2011,02,23,16,16,-2.40
2011,02,23,16,17,-2.40
2011,02,23,16,18,-2.50
2011,02,23,16,19,-2.50
2011,02,23,16,20,-2.60
2011,02,23,16,21,-2.60
2011,02,23,16,22,-2.60
2011,02,23,16,23,-2.70
2011,02,23,16,24,-2.70
2011,02,23,16,25,-2.70
2011,02,23,16,26,-2.70
2011,02,23,16,27,-2.70
2011,02,23,16,28,-2.80
2011,02,23,16,29,-2.80
2011,02,23,16,30,-2.80
2011,02,23,16,31,-2.80
2011,02,23,16,32,-2.80
2011,02,23,16,33,-2.80
2011,02,23,16,34,-2.80
2011,02,23,16,35,-2.80
2011,02,23,16,36,-2.80
2011,02,23,16,37,-2.90
2011,02,23,16,38,-2.80
2011,02,23,16,39,-2.80
2011,02,23,16,40,-2.80
2011,02,23,16,41,-2.90
2011,02,23,16,42,-2.90
2011,02,23,16,43,-2.90
2011,02,23,16,44,-2.90
2011,02,23,16,45,-2.90
2011,02,23,16,46,-2.90
2011,02,23,16,47,-2.90
2011,02,23,16,48,-2.90
2011,02,23,16,49,-2.90
2011,02,23,16,50,-2.90
2011,02,23,16,51,-2.90
2011,02,23,16,52,-2.90
2011,02,23,16,53,-2.90
2011,02,23,16,54,-2.90
2011,02,23,16,55,-2.90
2011,02,23,16,56,-2.90
2011,02,23,16,57,-2.90
2011,02,23,16,58,-2.90
2011,02,23,16,59,-2.90
2011,02,23,17,00,-2.90
2011,02,23,17,01,-2.90
2011,02,23,17,02,-2.90
2011,02,23,17,03,-2.90
2011,02,23,17,04,-2.90
2011,02,23,17,05,-3.00
2011,02,23,17,06,-3.00
2011,02,23,17,07,-3.00
2011,02,23,17,08,-3.00
2011,02,23,17,09,-3.00
2011,02,23,17,10,-3.00
2011,02,23,17,11,-3.00
2011,02,23,17,12,-3.00
2011,02,23,17,13,-3.00
2011,02,23,17,14,-3.00
2011,02,23,17,15,-3.00
2011,02,23,17,16,-2.90
2011,02,23,17,17,-2.90
2011,02,23,17,18,-2.90
2011,02,23,17,19,-2.90
2011,02,23,17,20,-2.80
2011,02,23,17,21,-2.80
2011,02,23,17,22,-2.80
2011,02,23,17,23,-2.80
2011,02,23,17,24,-2.80
2011,02,23,17,25,-2.80
2011,02,23,17,26,-2.80